When you browse on this site, cookies collect data to enhance your experience and personalize the content and advertising you see.
Visit our Privacy Policy to learn more. By continuing to use the site, you agree to this use of cookies and data.
  • In Österreich
  • Länderverzeichnis
  • Für 7 Tage
  • Wassertemperatur
  • Wetterkarte
  • News
  • Widgets
  • user-avatar
    Anmelden

    Stündliche Wetter Rysaevo

    Heute, 30 Mai, Samstag

    Zeit Temperatur Niederschläge Wind Luftdruck Luftfeuchtigkeit
    00:00 +18°C° 0 mm 7 m/S 738 mmHg 71%
    01:00 +17°C° 0 mm 7 m/S 738 mmHg 71%
    02:00 +17°C° 0 mm 7 m/S 738 mmHg 69%
    03:00 +16°C° 0 mm 7 m/S 738 mmHg 68%
    04:00 +16°C° 0 mm 7 m/S 738 mmHg 66%
    05:00 +17°C° 0 mm 7 m/S 738 mmHg 66%
    06:00 +17°C° 0 mm 7 m/S 738 mmHg 66%
    07:00 +18°C° 0 mm 7 m/S 738 mmHg 66%
    08:00 +20°C° 0 mm 7 m/S 738 mmHg 62%
    09:00 +22°C° 0 mm 7 m/S 738 mmHg 59%
    10:00 +24°C° 0 mm 6 m/S 739 mmHg 56%
    11:00 +26°C° 0 mm 6 m/S 738 mmHg 53%
    12:00 +27°C° 0 mm 6 m/S 738 mmHg 51%
    13:00 +28°C° 0 mm 5 m/S 738 mmHg 49%
    14:00 +29°C° 0 mm 5 m/S 738 mmHg 47%
    15:00 +29°C° 0 mm 4 m/S 737 mmHg 46%
    16:00 +30°C° 0 mm 3 m/S 737 mmHg 44%
    17:00 +29°C° 0 mm 3 m/S 737 mmHg 48%
    18:00 +28°C° 0 mm 2 m/S 737 mmHg 52%
    19:00 +27°C° 0 mm 2 m/S 736 mmHg 56%
    20:00 +25°C° 0 mm 2 m/S 737 mmHg 59%
    21:00 +24°C° 0 mm 3 m/S 737 mmHg 63%
    22:00 +21°C° 0 mm 4 m/S 737 mmHg 66%
    23:00 +21°C° 0 mm 4 m/S 736 mmHg 66%

    Morgen, 31 Mai, Sonntag

    Zeit Temperatur Niederschläge Wind Luftdruck Luftfeuchtigkeit
    00:00 +20°C° 0 mm 4 m/S 736 mmHg 67%
    01:00 +20°C° 0 mm 5 m/S 735 mmHg 68%
    02:00 +20°C° 0 mm 4 m/S 735 mmHg 68%
    03:00 +20°C° 0 mm 4 m/S 735 mmHg 69%
    04:00 +19°C° 0 mm 4 m/S 735 mmHg 69%
    05:00 +21°C° 0 mm 3 m/S 734 mmHg 68%
    06:00 +22°C° 0 mm 3 m/S 734 mmHg 66%
    07:00 +24°C° 0 mm 2 m/S 734 mmHg 65%
    08:00 +26°C° 0 mm 3 m/S 734 mmHg 60%
    09:00 +28°C° 0 mm 4 m/S 734 mmHg 55%
    10:00 +29°C° 0 mm 5 m/S 734 mmHg 50%
    11:00 +30°C° 0 mm 6 m/S 734 mmHg 49%
    12:00 +30°C° 0 mm 6 m/S 734 mmHg 48%
    13:00 +30°C° 0 mm 6 m/S 734 mmHg 47%
    14:00 +30°C° 0 mm 6 m/S 734 mmHg 47%
    15:00 +29°C° 0 mm 7 m/S 734 mmHg 48%
    16:00 +29°C° 0 mm 7 m/S 734 mmHg 48%
    17:00 +27°C° 0 mm 6 m/S 734 mmHg 54%
    18:00 +26°C° 0 mm 5 m/S 734 mmHg 59%
    19:00 +23°C° 0 mm 5 m/S 735 mmHg 65%
    20:00 +22°C° 0 mm 4 m/S 735 mmHg 66%
    21:00 +20°C° 0 mm 4 m/S 735 mmHg 67%
    22:00 +19°C° 0 mm 3 m/S 735 mmHg 68%
    23:00 +18°C° 0 mm 3 m/S 735 mmHg 71%

    übermorgen, 1 Juni, Montag

    Zeit Temperatur Niederschläge Wind Luftdruck Luftfeuchtigkeit
    00:00 +17°C° 0 mm 3 m/S 735 mmHg 74%
    01:00 +16°C° 0 mm 2 m/S 736 mmHg 77%
    02:00 +16°C° 0 mm 2 m/S 736 mmHg 80%
    03:00 +15°C° 0 mm 2 m/S 736 mmHg 82%
    04:00 +14°C° 0 mm 2 m/S 736 mmHg 84%
    05:00 +16°C° 0 mm 2 m/S 736 mmHg 79%
    06:00 +17°C° 0 mm 2 m/S 737 mmHg 74%
    07:00 +18°C° 0 mm 2 m/S 737 mmHg 69%
    08:00 +20°C° 0 mm 3 m/S 737 mmHg 65%
    09:00 +21°C° 0 mm 3 m/S 737 mmHg 60%
    10:00 +22°C° 0 mm 4 m/S 737 mmHg 55%
    11:00 +23°C° 0 mm 4 m/S 737 mmHg 52%
    12:00 +25°C° 0 mm 4 m/S 737 mmHg 49%
    13:00 +25°C° 0 mm 4 m/S 737 mmHg 46%
    14:00 +25°C° 0 mm 4 m/S 737 mmHg 45%
    15:00 +25°C° 0 mm 4 m/S 737 mmHg 45%
    16:00 +25°C° 0 mm 3 m/S 737 mmHg 44%
    17:00 +24°C° 0 mm 3 m/S 737 mmHg 50%
    18:00 +23°C° 0 mm 2 m/S 737 mmHg 55%
    19:00 +23°C° 0 mm 2 m/S 737 mmHg 61%
    20:00 +21°C° 0 mm 1 m/S 737 mmHg 63%
    21:00 +19°C° 0 mm 1 m/S 737 mmHg 66%
    22:00 +18°C° 0 mm 1 m/S 737 mmHg 68%
    23:00 +18°C° 0 mm 1 m/S 737 mmHg 68%

    2 Juni, Dienstag

    Zeit Temperatur Niederschläge Wind Luftdruck Luftfeuchtigkeit
    00:00 +15°C° 0 mm 0 m/S 737 mmHg 68%
    01:00 +15°C° 0 mm 0 m/S 737 mmHg 68%
    02:00 +14°C° 0 mm 0 m/S 737 mmHg 70%
    03:00 +14°C° 0 mm 0 m/S 737 mmHg 72%
    04:00 +13°C° 0 mm 0 m/S 737 mmHg 73%
    05:00 +15°C° 0 mm 0 m/S 737 mmHg 69%
    06:00 +17°C° 0 mm 0 m/S 737 mmHg 64%
    07:00 +19°C° 0 mm 0 m/S 738 mmHg 60%
    08:00 +20°C° 0 mm 0 m/S 738 mmHg 55%
    09:00 +23°C° 0 mm 1 m/S 738 mmHg 49%
    10:00 +25°C° 0 mm 1 m/S 738 mmHg 44%
    11:00 +25°C° 0 mm 2 m/S 738 mmHg 43%
    12:00 +26°C° 0 mm 2 m/S 738 mmHg 41%
    13:00 +27°C° 0 mm 2 m/S 738 mmHg 39%
    14:00 +27°C° 0 mm 2 m/S 737 mmHg 39%
    15:00 +27°C° 0 mm 2 m/S 737 mmHg 39%
    16:00 +27°C° 0 mm 2 m/S 737 mmHg 39%
    17:00 +26°C° 0 mm 2 m/S 737 mmHg 46%
    18:00 +25°C° 0 mm 2 m/S 737 mmHg 53%
    19:00 +22°C° 0 mm 3 m/S 737 mmHg 61%
    20:00 +21°C° 0 mm 3 m/S 737 mmHg 62%
    21:00 +19°C° 0 mm 2 m/S 736 mmHg 64%
    22:00 +18°C° 0 mm 2 m/S 736 mmHg 66%
    23:00 +18°C° 0 mm 2 m/S 736 mmHg 67%

    3 Juni, Mittwoch

    Zeit Temperatur Niederschläge Wind Luftdruck Luftfeuchtigkeit
    00:00 +17°C° 0 mm 2 m/S 736 mmHg 68%
    01:00 +17°C° 0 mm 2 m/S 736 mmHg 69%
    02:00 +17°C° 0 mm 2 m/S 736 mmHg 71%
    03:00 +16°C° 0 mm 2 m/S 735 mmHg 73%
    04:00 +16°C° 0 mm 2 m/S 735 mmHg 74%
    05:00 +17°C° 0 mm 2 m/S 735 mmHg 71%
    06:00 +18°C° 0 mm 2 m/S 735 mmHg 67%
    07:00 +20°C° 0 mm 2 m/S 735 mmHg 64%
    08:00 +23°C° 0 mm 2 m/S 735 mmHg 58%
    09:00 +24°C° 0 mm 2 m/S 735 mmHg 51%
    10:00 +26°C° 0 mm 2 m/S 735 mmHg 45%
    11:00 +27°C° 0 mm 1 m/S 735 mmHg 41%
    12:00 +28°C° 0 mm 1 m/S 734 mmHg 37%
    13:00 +29°C° 0 mm 1 m/S 734 mmHg 34%
    14:00 +30°C° 0 mm 1 m/S 734 mmHg 33%
    15:00 +30°C° 0 mm 1 m/S 733 mmHg 33%
    16:00 +30°C° 0 mm 1 m/S 733 mmHg 33%
    17:00 +28°C° 0.1 mm 2 m/S 733 mmHg 40%
    18:00 +27°C° 0.1 mm 3 m/S 733 mmHg 47%
    19:00 +25°C° 0.1 mm 5 m/S 733 mmHg 54%
    20:00 +22°C° 3.6 mm 5 m/S 733 mmHg 64%
    21:00 +20°C° 3.6 mm 6 m/S 733 mmHg 73%
    22:00 +17°C° 3.6 mm 7 m/S 733 mmHg 83%
    23:00 +16°C° 0 mm 5 m/S 733 mmHg 85%

    4 Juni, Donnerstag

    Zeit Temperatur Niederschläge Wind Luftdruck Luftfeuchtigkeit
    00:00 +17°C° 0 mm 4 m/S 733 mmHg 86%
    01:00 +16°C° 0 mm 2 m/S 732 mmHg 88%
    02:00 +16°C° 0 mm 2 m/S 733 mmHg 90%
    03:00 +16°C° 0 mm 2 m/S 733 mmHg 91%
    04:00 +15°C° 0 mm 2 m/S 733 mmHg 93%
    05:00 +16°C° 0 mm 3 m/S 733 mmHg 90%
    06:00 +18°C° 0 mm 3 m/S 733 mmHg 87%
    07:00 +19°C° 0 mm 3 m/S 734 mmHg 83%
    08:00 +20°C° 0 mm 3 m/S 734 mmHg 77%
    09:00 +21°C° 0 mm 4 m/S 734 mmHg 70%
    10:00 +23°C° 0 mm 4 m/S 734 mmHg 63%
    11:00 +23°C° 0 mm 4 m/S 734 mmHg 61%
    12:00 +25°C° 0 mm 4 m/S 734 mmHg 58%
    13:00 +25°C° 0 mm 4 m/S 734 mmHg 56%
    14:00 +25°C° 0.1 mm 4 m/S 734 mmHg 57%
    15:00 +25°C° 0.1 mm 4 m/S 735 mmHg 58%
    16:00 +23°C° 0.1 mm 4 m/S 735 mmHg 60%
    17:00 +22°C° 0 mm 4 m/S 735 mmHg 63%
    18:00 +21°C° 0 mm 5 m/S 735 mmHg 66%
    19:00 +20°C° 0 mm 5 m/S 736 mmHg 69%
    20:00 +17°C° 0 mm 6 m/S 736 mmHg 71%
    21:00 +16°C° 0 mm 6 m/S 736 mmHg 72%
    22:00 +15°C° 0 mm 7 m/S 737 mmHg 74%
    23:00 +14°C° 0 mm 7 m/S 737 mmHg 75%
    Mehr zeigen